Regional Weather Roundup
Issued by NWS

Home | Current Version | Previous Version | Graphics & Text | Print | Product List | Glossary On
Versions: 1 2 3 4 5 6 7 8 9 10 11 12 13 14 15 16 17 18 19 20 21 22 23 24 25 26 27 28 29 30 31 32 33 34 35 36 37 38 39 40 41 42 43 44 45 46 47 48 49 50
000
ASUS43 KMKX 260721
RWRWI

WISCONSIN REGIONAL WEATHER ROUNDUP
NATIONAL WEATHER SERVICE MILWAUKEE/SULLIVAN WI
200 AM CDT THU MAY 26 2016

NOTE: "FAIR" INDICATES FEW OR NO CLOUDS BELOW 12,000 FEET WITH NO
SIGNIFICANT WEATHER AND/OR OBSTRUCTIONS TO VISIBILITY.

WIZ001-002-006>008-014>016-023>028-260800-
NORTHWEST WISCONSIN

CITY           SKY/WX    TMP DP  RH WIND       PRES   REMARKS
SUPERIOR ARPT  CLOUDY    43  43  99 E8        29.84F FOG
ASHLAND        FOG       48  48 100 NW3       29.83F VSB 1/4
HAYWARD        FOG       52  51  97 N5        29.82F VSB 1/2
SIREN          FOG       57  57  97 N5        29.83R VSB 1/2
CUMBERLAND     FOG       55  55 100 CALM      29.81F VSB 1/4
RICE LAKE      FOG       58  57  96 E3        29.82F VSB 1/4
CHETEK         FOG       58  58 100 SE6       29.80F VSB 1/2
LADYSMITH      FOG       59  58  97 CALM      29.84F VSB 1/4
EAU CLAIRE     FOG       57  57 100 NE3       29.79F VSB 1/4
MENOMONIE      FOG       61  60  99 CALM      29.80F VSB 1/4
NEW RICHMOND     N/A     62  62 100 CALM      29.80F FOG
OSCEOLA        CLOUDY    63  63 100 S5        29.82F
$$

WIZ003>005-009-010-017-018-260800-
NORTH CENTRAL WISCONSIN

CITY           SKY/WX    TMP DP  RH WIND       PRES   REMARKS
MANITOWISH WTR NOT AVBL
ARBOR VITAE    CLOUDY    62  61  96 SW5       29.82F
WOODRUFF       CLOUDY    62  61  96 SW5       29.82F
RHINELANDER    CLOUDY    62  60  93 SW8       29.83F
EAGLE RIVER      N/A     60  60 100 S3        29.82F
LAND O LAKES   DRIZZLE   59  58  98 CALM      29.83F
PHILLIPS       CLOUDY    60  60 100 SW3       29.82F
TOMAHAWK       CLOUDY    61  59  94 SW5       29.84F
MEDFORD        CLOUDY    62  62 100 S6        29.84F FOG
MERRILL        CLOUDY    63  63 100 SW6       29.85F FOG
$$

WIZ029-030-035-036-043>047-260800-
CENTRAL WISCONSIN

CITY           SKY/WX    TMP DP  RH WIND       PRES   REMARKS
WAUSAU         CLOUDY    63  32  31 SW8       29.83F FOG
MOSINEE        FOG       61  61 100 SW7       29.86F VSB 1/4
MARSHFIELD     FOG       63  61  93 S3        29.84F VSB 1/4
STEVENS POINT  CLOUDY    59  59 100 SW5       29.86F FOG
WAUPACA        FOG       59  59  98 CALM      29.86F VSB 1/4
WAUTOMA        NOT AVBL
WISC RAPIDS    FOG       62  60  93 SW3       29.86F VSB 3/4
CAMP DOUGLAS   FOG       61  61 100 CALM      29.84F VSB 1/2
$$

WIZ011>013-019>022-031-037>040-048>050-260800-
NORTHEAST WISCONSIN

CITY           SKY/WX    TMP DP  RH WIND       PRES   REMARKS
ANTIGO         FOG       60  60 100 SW9       29.85F VSB 1/2
SHAWANO        CLOUDY    61  60  95 SW3       29.85F FOG
OCONTO         CLEAR    N/A N/A N/A CALM      29.84F
STURGEON BAY   NOT AVBL
GREEN BAY      CLEAR     60  59  96 S10       29.85F FOG
MANITOWOC      PTCLDY    57  56  96 SW9       29.88S FOG
APPLETON       CLOUDY    61  61 100 S6        29.85F FOG
CLINTONVILLE   CLOUDY    59  59 100 SW6       29.85F FOG
OSHKOSH        CLEAR     62  60  93 S10       29.86F FOG
$$

WIZ032>034-041-042-053>061-260800-
SOUTHWEST WISCONSIN

CITY           SKY/WX    TMP DP  RH WIND       PRES   REMARKS
LA CROSSE      PTCLDY    64  63  96 SE7       29.82F
SPARTA         FOG       56  56 100 CALM      29.85F VSB 1/2
VIROQUA        CLEAR     67  61  80 S7        29.86F
BOSCOBEL       FOG       60  59  96 CALM      29.86F VSB 1/4
PRAIRIE DU CHI CLEAR     64  60  88 CALM      29.84F
PLATTEVILLE    CLOUDY    69  59  71 CALM      29.88S
$$

WIZ056-057-062-063-064-067-068-260800-
SOUTH CENTRAL WISCONSIN

CITY           SKY/WX    TMP DP  RH WIND       PRES   REMARKS
REEDSBURG      FOG       62  62 100 CALM      29.86F VSB 1/2
BARABOO/DELLS  FOG       63  62  95 S3        29.87S VSB<1/4
LONE ROCK      CLEAR     61  58  90 E5        29.87F
MINERAL POINT  CLOUDY    68  59  73 S5        29.89S
MADISON        CLEAR     67  63  87 S9        29.87F
MIDDLETON      CLEAR     67  63  85 S3        29.88F
WATERTOWN      CLEAR     63  63 100 S3        29.89S
MONROE         CLEAR     63  61  94 S6        29.90S
JANESVILLE     CLEAR     64  64 100 S5        29.89F
$$

WIZ051-052-058>065-066-070>072-260800-
SOUTHEAST WISCONSIN

CITY           SKY/WX    TMP DP  RH WIND       PRES   REMARKS
MILWAUKEE      CLEAR     64  62  93 S8        29.90S
WAUKESHA       CLOUDY    61  61 100 S7        29.91S FOG
MILWAUKEE/TIMM CLEAR     59  55  88 CALM      29.90F FOG
RACINE         CLEAR     65  62  90 S5        29.92S
BURLINGTON     CLEAR     63  62  98 S3        29.91S
KENOSHA        CLEAR     66  63  90 S10       29.91S
FOND DU LAC    CLEAR     63  61  93 S9        29.87F FOG
SHEBOYGAN      CLOUDY    57  55  93 S7        29.88F FOG
WEST BEND      FOG       61  61 100 CALM      29.89F VSB 1/2
JUNEAU         FOG       61  61  99 SE5       29.90F VSB<1/4
$$

LSZ147-162-260800-
LAKE SUPERIOR

STATION/POSITION TIME  TEMP    WIND        PRES    WAVE
                       AIR SEA DIR/SP/G            HT/PER
                 (UTC) (F)     (DEG/KT/KT) (MB)    (FT/S)
W MID LAKE BUOY  0650   42 38   70/ 10/ 12 1010.8F   2/ 4
DEVILS ISLAND    0700   42      20/  7/  7 1011.3F
SAXON HARBOR     0600   45     310/  3/  5 1010.5S
$$

LMZ867-665-643>646-260800-
LAKE MICHIGAN

STATION/POSITION TIME  TEMP    WIND        PRES    WAVE
                       AIR SEA DIR/SP/G            HT/PER
                 (UTC) (F)     (DEG/KT/KT) (MB)    (FT/S)
CHAMBERS ISLAND  0600   60     120/  5/  9 1010.8F
N MID LAKE BUOY  0650   52 45  150/ 12/ 12 1012.0R   1
NORTHPORT PIER   0600   55     140/  4/  6 1011.5F
SISTER BAY       0634   57     150/  9/ 12   N/A
ALGOMA LAKESHORE 0602             CALM       N/A
KEWAUNEE LAKESHO 0600   51     160/  1/  2 1011.0F
SHEBOYGAN LAKESH 0700   54     190/  6/  6 1012.6F
PORT WASHINGTON  0600   53      50/  2/  3 1013.2F
S MID LAKE BUOY  0650   54 49  140/ 10/ 12 1012.7R   1/ 3
KENOSHA   LAKESH 0700   62     190/ 10/ 15 1012.5F
$$

TC  - TEMPERATURE IN CELSIUS
VSB - VISIBILITY IN STATUTE MILES
WCI - WIND CHILL INDEX
HX  - HEAT INDEX





USA.gov is the U.S. government's official web portal to all federal, state and local government web resources and services.